Regional Weather Roundup
Issued by NWS

Home | Current Version | Previous Version | Text Only | Print | Product List | Glossary Off
Versions: 1 2 3 4 5 6 7 8 9 10 11 12 13 14 15 16 17 18 19 20 21 22 23 24 25 26 27 28 29 30 31 32 33 34 35 36 37 38 39 40 41 42 43 44 45 46 47 48 49 50

000
ASUS45 KCYS 220710
RWRWY

WYOMING REGIONAL WEATHER ROUNDUP
NATIONAL WEATHER SERVICE CHEYENNE WY
100 AM MDT MON SEP 22 2014

NOTE:  "FAIR" INDICATES FEW OR NO CLOUDS BELOW 12,000 FEET
WITH NO SIGNIFICANT WEATHER AND/OR OBSTRUCTIONS TO VISIBILITY.

WYZ001-220800-
YELLOWSTONE NATIONAL PARK

CITY           SKY/WX    TMP DP  RH WIND       PRES   REMARKS
LK YELLOWSTONE   N/A     49  46  90 NW3       30.32F
W YELLOWSTONE  NOT AVBL

$$
WYZ002>013-054>058-071-098>099-220800-
NORTHERN WYOMING

CITY           SKY/WX    TMP DP  RH WIND       PRES   REMARKS
JACKSON        CLOUDY    52  52 100 S3        30.25S
CODY             N/A    N/A N/A N/A MISG        N/A
GREYBULL       CLOUDY    61  47  59 E5        30.06F
WORLAND        CLOUDY    63  45  51 CALM      30.07F
SHERIDAN       PTCLDY    56  45  66 S8        30.07F
BUFFALO        PTCLDY    59  42  53 SE16      30.14F
GILLETTE       PTCLDY    59  39  47 S17       30.14F
HULETT         FAIR      64  37  36 MISG      30.17
NEWCASTLE      FAIR      61  34  36 E13G22    30.22

$$
WYZ014>020-022>026-101>103-220800-
CENTRAL WYOMING

CITY           SKY/WX    TMP DP  RH WIND       PRES   REMARKS
BIG PINEY      CLOUDY    52  50  93 E5        30.29S
PINEDALE       CLOUDY    50  50 100 W6        30.29S
DUBOIS         CLOUDY    46  45  93 NW9       30.26F
LANDER         MOCLDY    61  45  55 E5        30.14F
RIVERTON       CLOUDY    60  40  47 S8        30.16F
CASPER         CLOUDY    58  40  51 NE6       30.18F
DOUGLAS        CLOUDY    59  41  51 SE16G23   30.21F

$$
WYZ021-027>030-104>119-220800-
SOUTHERN WYOMING

CITY           SKY/WX    TMP DP  RH WIND       PRES   REMARKS
EVANSTON       PTCLDY    49  45  86 S3        30.28F
KEMMERER       FOG       46  45  93 CALM      30.29F VSB<1/4
FORT BRIDGER     N/A     48  48 100 W3        30.30F
ROCK SPRINGS   PTCLDY    50  48  93 S7        30.27F
DIXON          FAIR      55  49  80 SE6       30.28F
RAWLINS        CLOUDY    55  46  71 CALM      30.27F
SARATOGA       CLOUDY    54  45  71 SE10      30.29F
LARAMIE        MOCLDY    49  40  71 S10       30.31F
CHEYENNE       MOCLDY    54  40  59 S10       30.30F
TORRINGTON     PTCLDY    55  41  59 E9        30.23F
PINE BLUFFS    FAIR      57  37  47 S22G29    30.27F

$$



USA.gov is the U.S. government's official web portal to all federal, state and local government web resources and services.